{"data":{"norad_id":55930,"intl_designator":"2023-037S","name":"STARLINK-5896","alt_names":[],"object_type":"PAYLOAD","status":"ACTIVE","operator":null,"country":"US","launch_date":"2023-03-17","launch_site_code":"AFWTR","launch_vehicle":null,"mission":null,"orbit_class":"UNKNOWN","rcs_meters":null,"size_class":null,"mass_kg":null,"dimensions":null,"purposes":["comms"],"wikipedia_slug":null,"has_3d_model":false,"image_url":null,"decayed_at":null,"tle_current":{"epoch":"2026-05-25T03:26:44.702880Z","epoch_age_seconds":56665,"freshness":"FRESH","line1":"1 55930U 23037S   26145.14357295  .00006019  00000+0  51175-3 0  9998","line2":"2 55930  70.0015  91.6389 0003392 268.4477  91.6294 14.98336559175432","mean_motion":14.98336559,"eccentricity":0.0003392,"inclination_deg":70.0015,"raan_deg":91.6389,"arg_perigee_deg":268.4477,"mean_anomaly_deg":91.6294,"bstar":0.00051175,"rev_number":17543,"period_min":96.10657841527,"perigee_km":569.67810930338,"apogee_km":574.39310640054,"semimajor_km":6950.172607852,"source":"CELESTRAK","updated_at":"2026-05-25T13:38:17.913374Z"}}}